Showing default

FLOCK 4Q 4, 58327

Orbit data source: Space-Track

FLOCK 4Q 4, 58327 is a payload satellite owned by Planet (US) in SSO that was launched on Sat, 11 Nov 2023 UTC via an FALCON 9 launch vehicle from the Air Force Western Test Range (AFWTR). Payload-class satellites include a variety of spacecraft equipped with specific instruments for various scientific and technological missions. These include communications satellites like Starlink; space stations such as the ISS; scientific satellites like the Hubble; Earth observation satellites from companies like Planet Labs, Umbra, and HawkEye 360; GPS; miniature CubeSats for education and research; and military/defense satellites.

Loading next visibility...
Identifier
58327, 2023-174BZ
Orbit
SSO
Country
Flag of USUS
Related business
Manufacturer
Planet
Mission
Operational Commercial Imaging
Bus & Motor
CUBESAT 3U, Unknown motor
Mass
5.7 kg wet, 5.7 kg dry
Launch date (UTC)
2023-11-11 (2 years ago)
Launch vehicle
FALCON 9
Launch site
Air Force Western Test Range (AFWTR)
Object type
Payload
Rocket body
Debris
Shape & HBR
Box + 2 Pan, 1.0 m
Radar Cross Section
0.072 m², Medium (>0.1 m² and < 1m²)

Expand to show TLE details & history
Last TLE update: 12 hours ago

TLE from 12 hours ago
0 FLOCK 4Q 4
1 58327U 23174BZ  26126.50884837  .00018078  00000-0  36017-3 0  9996
2 58327  97.3816 213.3580 0004383 314.5427  45.5465 15.46942716139116
Epoch: 2026-05-06T12:12Z
TLE epoch observation values (Epoch: 2026-05-06T12:12:44.499Z)
Latitude
0.00006°
Longitude
165.80425°
Altitude
426.715 km
Speed
7.657 km/s
True Right ascension
14h 13m 25s
True Declination
0° 00' 00"
Sunlit
Object was in full shadow at epoch
Visualization orbit readout
Latitude
Unknown
Longitude
Unknown
Altitude
Unknown
Speed
Unknown
Apparent Right ascension
Unknown
Apparent Declination
Unknown
Sunlit
N/A
Visualization observer readout
Local Sidereal Time
08:29:17
Azimuth
Unknown
Elevation
Unknown
Doppler factor
Unknown
Orbital elements
Apogee altitude
425.585 km
Perigee altitude
419.624 km
Semi-major axis
6,800.742 km
Eccentricity
0.00044
Inclination
97.3816°
RAAN
213.358°
Arg. of periapsis
314.5427°
True anomaly
45.58237°
Mean anomaly
45.5465°
Eccentric anomaly
45.56443°
Mean motion
3.86998 °/min
Orbital period
93.02 mins
BSTAR
0.00036017
Loading maneuver chart data...
Computing Atmospheric mass density...
Loading historical data...
Loading historical data...
Loading historical data...
Loading historical data...
Loading historical data...
Loading historical data...
Loading historical data...

Documentation

Showing up to 5 results
|